Location: Unspecified
(42.9300°N, 71.1866°W)
Time: 01:42:18
(UTC-04:00)

CZ-3 Stage 3 - Visible Passes

Search period start: 20 April 2014 00:00
Search period end: 30 April 2014 00:00
Orbit: 476 x 34781 km, 30.6° (Epoch: 19 April)

Date Brightness Start Highest point End Pass type
(mag) Time Alt. Az. Time Alt. Az. Time Alt. Az.
20 Apr 5.9 04:35:51 16° WSW 04:49:38 36° SSW 10:35:11 10° S visible
21 Apr 5.8 01:09:50 27° SE 01:09:50 27° SE 01:25:36 10° ESE visible
23 Apr 6.0 04:34:49 15° WSW 04:49:34 35° SSW 10:23:53 10° S visible
24 Apr 5.8 01:08:48 28° SE 01:08:48 28° SE 01:25:54 10° ESE visible
26 Apr 6.1 04:33:46 14° WSW 04:49:34 33° SSW 10:11:53 10° S visible
27 Apr 5.9 01:07:45 28° SE 01:07:45 28° SE 01:26:12 10° ESE visible
29 Apr 6.2 04:32:44 13° WSW 04:49:37 31° SSW 09:59:11 10° S visible
